WO5CID Weather Reports


time (UTC)temp
C
wind
direction
speed
KPH
gust
KPH
rain 1hr
cm
rain 24hr
cm
rain mn
cm
humidity
%
barometer
mb
20260510145952 29 264 3.2 3.2 0.00 0.00 0.00 71 1016.6
20260510145449 28 207 1.6 1.6 0.00 0.00 0.00 72 1016.5
20260510144945 28 267 6.4 8.0 0.00 0.00 0.00 75 1016.5
20260510144442 28 263 3.2 3.2 0.00 0.00 0.00 75 1016.5
20260510143937 27 247 3.2 3.2 0.00 0.00 0.00 75 1016.6
20260510143433 27 204 1.6 1.6 0.00 0.00 0.00 75 1016.3
20260510142930 27 264 3.2 3.2 0.00 0.00 0.00 76 1016.3
20260510142427 28 239 3.2 1.6 0.00 0.00 0.00 74 1016.4
20260510141924 28 203 3.2 3.2 0.00 0.00 0.00 73 1016.5
20260510141420 27 121 1.6 3.2 0.00 0.00 0.00 77 1016.6
20260510140917 27 227 0.0 0.0 0.00 0.00 0.00 76 1016.3
20260510140413 27 200 0.0 0.0 0.00 0.00 0.00 77 1016.3
20260510135907 27 149 1.6 3.2 0.00 0.00 0.00 79 1016.1
20260510135404 27 200 3.2 3.2 0.00 0.00 0.00 79 1016.3
20260510134901 26 230 3.2 3.2 0.00 0.00 0.00 82 1016.4
20260510134357 26 206 6.4 8.0 0.00 0.00 0.00 82 1016.3
20260510133853 26 243 4.8 3.2 0.00 0.00 0.00 85 1016.3
20260510133349 25 217 1.6 1.6 0.00 0.00 0.00 85 1016.0
20260510132845 25 214 1.6 1.6 0.00 0.00 0.00 88 1016.3
20260510132338 25 236 3.2 1.6 0.00 0.00 0.00 89 1016.0
20260510131834 23 234 1.6 1.6 0.00 0.00 0.00 96 1016.2
20260510131332 23 233 1.6 1.6 0.00 0.00 0.00 98 1016.1
20260510130829 23 213 1.6 1.6 0.00 0.00 0.00 99 1016.2
20260510130326 23 216 1.6 1.6 0.00 0.00 0.00 99 1016.1
20260510125822 23 210 1.6 1.6 0.00 0.00 0.00 99 1016.1
20260510125318 22 210 1.6 1.6 0.00 0.00 0.00 99 1016.1
20260510124815 22 204 0.0 0.0 0.00 0.00 0.00 99 1016.0
20260510124312 22 204 1.6 1.6 0.00 0.00 0.00 99 1015.8
20260510123808 22 201 0.0 0.0 0.00 0.00 0.00 99 1015.5
20260510123303 22 202 0.0 0.0 0.00 0.00 0.00 99 1015.4
20260510122759 22 202 0.0 0.0 0.00 0.00 0.00 99 1015.7
20260510122255 21 202 0.0 0.0 0.00 0.00 0.00 99 1015.6
20260510121752 21 202 0.0 0.0 0.00 0.00 0.00 99 1015.7
20260510121249 21 202 0.0 0.0 0.00 0.00 0.00 99 1015.4
20260510120747 21 202 0.0 0.0 0.00 0.00 0.00 99 1015.5
20260510120243 21 192 0.0 0.0 0.00 0.00 0.00 99 1015.7
20260510115739 21 192 0.0 0.0 0.00 0.00 0.00 99 1015.3
20260510115237 21 192 0.0 0.0 0.00 0.00 0.00 99 1015.3
20260510114727 21 192 0.0 0.0 0.00 0.00 0.00 99 1015.3
20260510114224 20 192 0.0 0.0 0.00 0.00 0.00 99 1015.1
20260510113719 20 192 0.0 0.0 0.00 0.00 0.00 99 1015.1
20260510113216 20 192 0.0 0.0 0.00 0.00 0.00 99 1015.0
20260510112712 20 192 0.0 0.0 0.00 0.00 0.00 99 1014.9
20260510112209 20 192 0.0 0.0 0.00 0.00 0.00 99 1014.8
20260510111705 20 192 0.0 0.0 0.00 0.00 0.00 99 1014.7
20260510111202 20 192 0.0 0.0 0.00 0.00 0.00 99 1014.7
20260510110657 20 192 0.0 0.0 0.00 0.00 0.00 99 1014.9
20260510110155 20 187 0.0 0.0 0.00 0.00 0.00 99 1014.7
20260510105649 20 187 0.0 0.0 0.00 0.00 0.00 99 1014.7
20260510105144 20 187 0.0 0.0 0.00 0.00 0.00 99 1014.5
20260510104641 20 187 0.0 0.0 0.00 0.00 0.00 99 1014.4
20260510104138 20 187 0.0 0.0 0.00 0.00 0.00 99 1014.5
20260510103634 20 187 0.0 0.0 0.00 0.00 0.00 99 1014.1
20260510103130 20 187 0.0 0.0 0.00 0.00 0.00 99 1014.1
20260510102626 20 187 0.0 0.0 0.00 0.00 0.00 99 1014.2
20260510102122 20 187 0.0 0.0 0.00 0.00 0.00 99 1014.1
20260510101620 20 187 0.0 0.0 0.00 0.00 0.00 99 1014.1
20260510101118 20 187 0.0 0.0 0.00 0.00 0.00 99 1013.9
20260510100614 20 187 0.0 0.0 0.00 0.00 0.00 99 1013.9
20260510100111 20 187 0.0 0.0 0.00 0.00 0.00 99 1013.9
20260510095607 20 187 0.0 0.0 0.00 0.00 0.00 99 1013.8
20260510095102 20 187 0.0 0.0 0.00 0.00 0.00 99 1013.7
20260510094601 20 187 0.0 0.0 0.00 0.00 0.00 99 1013.8
20260510094057 20 187 0.0 0.0 0.00 0.00 0.00 99 1013.9
20260510093554 20 187 0.0 0.0 0.00 0.00 0.00 99 1013.7
20260510093050 20 187 0.0 0.0 0.00 0.00 0.00 99 1013.9
20260510092547 20 187 0.0 0.0 0.00 0.00 0.00 99 1013.6
20260510092047 20 187 0.0 0.0 0.00 0.00 0.00 99 1013.7
20260510091544 20 187 0.0 0.0 0.00 0.00 0.00 99 1013.5
20260510091040 20 187 0.0 0.0 0.00 0.00 0.00 99 1013.6
20260510090537 20 187 0.0 0.0 0.00 0.00 0.00 99 1013.3
20260510090032 21 187 0.0 0.0 0.00 0.00 0.00 99 1013.3
20260510085527 21 187 0.0 0.0 0.00 0.00 0.00 99 1013.3
20260510085023 21 187 0.0 0.0 0.00 0.00 0.00 99 1013.0
20260510084520 21 187 0.0 0.0 0.00 0.00 0.00 99 1013.0
20260510084017 20 187 0.0 0.0 0.00 0.00 0.00 99 1013.1
20260510083513 20 187 0.0 0.0 0.00 0.00 0.00 99 1013.0
20260510083010 20 187 0.0 0.0 0.00 0.00 0.00 99 1013.1
20260510082507 20 187 0.0 0.0 0.00 0.00 0.00 99 1013.1
20260510082007 20 187 0.0 0.0 0.00 0.00 0.00 99 1012.8
20260510081502 20 187 0.0 0.0 0.00 0.00 0.00 99 1012.9
20260510080958 20 187 0.0 0.0 0.00 0.00 0.00 99 1012.9
20260510080457 20 187 0.0 0.0 0.00 0.00 0.00 99 1013.0
20260510075954 21 187 0.0 0.0 0.00 0.00 0.00 99 1013.0
20260510075452 21 187 0.0 0.0 0.00 0.00 0.00 99 1013.0
20260510074948 21 187 0.0 0.0 0.00 0.00 0.00 99 1013.0
20260510074446 21 187 0.0 0.0 0.00 0.00 0.00 99 1012.9
20260510073942 21 187 0.0 0.0 0.00 0.00 0.00 99 1012.9
20260510073437 21 187 0.0 0.0 0.00 0.00 0.00 99 1012.8
20260510072934 21 187 0.0 0.0 0.00 0.00 0.00 99 1012.6
20260510072431 21 187 0.0 0.0 0.00 0.00 0.00 99 1012.9
20260510071926 21 186 0.0 0.0 0.00 0.00 0.00 99 1012.9
20260510071423 21 186 0.0 0.0 0.00 0.00 0.00 99 1012.8
20260510070921 21 168 0.0 0.0 0.00 0.00 0.00 99 1012.7
20260510070419 21 220 0.0 0.0 0.00 0.00 0.00 99 1012.8
20260510065914 21 214 0.0 0.0 0.00 0.00 0.00 99 1012.7
20260510065410 21 171 0.0 0.0 0.00 0.00 0.00 99 1012.7
20260510064907 21 193 0.0 0.0 0.00 0.00 0.00 99 1013.0
20260510064405 21 200 0.0 0.0 0.00 0.00 0.00 99 1013.1
20260510063901 21 185 0.0 0.0 0.00 0.00 0.00 99 1013.0
20260510063357 21 175 0.0 0.0 0.00 0.00 0.00 99 1013.0
20260510062854 21 177 0.0 0.0 0.00 0.00 0.00 99 1013.2
20260510062349 21 176 0.0 0.0 0.00 0.00 0.00 99 1013.3
20260510061845 21 163 1.6 1.6 0.00 0.00 0.00 99 1013.3
20260510061342 21 216 0.0 0.0 0.00 0.00 0.00 99 1013.6
20260510060838 21 216 0.0 0.0 0.00 0.00 0.00 99 1013.7
20260510060335 21 216 0.0 0.0 0.00 0.00 0.00 99 1013.7
20260510055832 21 216 0.0 0.0 0.00 0.00 0.00 99 1013.9
20260510055330 21 216 0.0 0.0 0.00 0.00 0.00 99 1013.8
20260510054825 21 216 0.0 0.0 0.00 0.00 0.00 99 1013.9
20260510054321 21 216 0.0 0.0 0.00 0.00 0.00 99 1013.8
20260510053815 21 216 0.0 0.0 0.00 0.00 0.00 99 1014.1
20260510053306 21 216 0.0 0.0 0.00 0.00 0.00 99 1014.1
20260510052802 21 216 0.0 0.0 0.00 0.00 0.00 99 1014.2
20260510052258 21 216 0.0 0.0 0.00 0.00 0.00 99 1014.2
20260510051754 21 217 0.0 0.0 0.00 0.00 0.00 99 1014.2
20260510051251 21 217 0.0 0.0 0.00 0.00 0.00 99 1014.3
20260510050748 21 217 0.0 0.0 0.00 0.00 0.00 98 1014.3
20260510050245 21 217 0.0 0.0 0.00 0.00 0.00 98 1014.5
20260510045742 21 217 0.0 0.0 0.00 0.00 0.00 98 1014.6
20260510045238 21 217 0.0 0.0 0.00 0.00 0.00 98 1014.4
20260510044735 21 217 0.0 0.0 0.00 0.00 0.00 98 1015.0
20260510044233 21 217 0.0 0.0 0.00 0.00 0.00 98 1014.8
20260510043728 21 217 0.0 0.0 0.00 0.00 0.00 98 1014.8
20260510043225 21 217 0.0 0.0 0.00 0.00 0.00 98 1014.6
20260510042722 21 217 0.0 0.0 0.00 0.00 0.00 98 1014.8
20260510042218 21 217 0.0 0.0 0.00 0.00 0.00 98 1014.8
20260510041715 21 217 0.0 0.0 0.00 0.00 0.00 98 1014.8
20260510041213 21 217 0.0 0.0 0.00 0.00 0.00 98 1015.1
20260510040709 21 217 0.0 0.0 0.00 0.00 0.00 98 1014.8
20260510040206 21 216 0.0 0.0 0.00 0.00 0.00 98 1014.9
20260510035701 21 216 0.0 0.0 0.00 0.23 0.23 98 1014.9
20260510035158 21 217 0.0 0.0 0.00 0.23 0.23 98 1014.7
20260510034654 21 216 0.0 0.0 0.00 0.23 0.23 98 1015.0
20260510034151 21 216 0.0 0.0 0.00 0.23 0.23 98 1015.0
20260510033647 21 217 0.0 0.0 0.00 0.23 0.23 98 1014.9
20260510033145 21 217 0.0 0.0 0.00 0.23 0.23 98 1014.7
20260510032641 21 217 0.0 0.0 0.00 0.23 0.23 98 1014.9
20260510032137 21 217 0.0 0.0 0.00 0.23 0.23 98 1015.0
20260510031632 21 217 0.0 0.0 0.00 0.23 0.23 98 1014.9
20260510031129 21 217 0.0 0.0 0.00 0.23 0.23 98 1014.9
20260510030623 21 216 0.0 0.0 0.00 0.23 0.23 98 1014.8
20260510030121 21 217 0.0 0.0 0.00 0.23 0.23 98 1014.9
20260510025618 21 217 0.0 0.0 0.00 0.23 0.23 98 1014.8
20260510025115 21 216 0.0 0.0 0.00 0.23 0.23 98 1014.8
20260510024612 21 216 0.0 0.0 0.00 0.23 0.23 98 1014.9
20260510024108 21 216 0.0 0.0 0.00 0.23 0.23 98 1014.6
20260510023604 21 216 0.0 0.0 0.00 0.23 0.23 98 1014.7
20260510023102 21 217 0.0 0.0 0.00 0.23 0.23 98 1014.7
20260510022602 21 217 0.0 0.0 0.00 0.23 0.23 98 1014.9
20260510022056 21 216 0.0 0.0 0.00 0.23 0.23 97 1014.5
20260510021553 21 217 0.0 0.0 0.00 0.23 0.23 97 1014.6
20260510021050 21 216 0.0 0.0 0.00 0.23 0.23 97 1014.2
20260510020544 21 217 0.0 0.0 0.00 0.23 0.23 97 1014.3
20260510020040 21 217 0.0 0.0 0.00 0.23 0.23 97 1014.3
20260510015536 21 216 0.0 0.0 0.00 0.23 0.23 97 1014.2
20260510015032 21 216 1.6 0.0 0.00 0.23 0.23 97 1014.0
20260510014529 21 216 1.6 1.6 0.00 0.23 0.23 97 1013.9
20260510014026 21 218 0.0 0.0 0.00 0.23 0.23 97 1014.0
20260510013520 21 190 0.0 0.0 0.00 0.23 0.23 97 1013.7
20260510013016 21 190 0.0 0.0 0.00 0.23 0.23 97 1013.7
20260510012511 21 191 0.0 0.0 0.00 0.23 0.23 97 1013.9
20260510012007 21 190 0.0 0.0 0.00 0.23 0.23 97 1013.6
20260510011501 21 190 0.0 0.0 0.00 0.23 0.23 96 1013.1
20260510010957 21 190 1.6 1.6 0.00 0.23 0.23 96 1013.2
20260510010455 21 190 0.0 0.0 0.00 0.23 0.23 96 1013.4
20260510005951 21 190 0.0 0.0 0.00 0.23 0.23 96 1013.7
20260510005447 21 190 0.0 0.0 0.00 0.23 0.23 96 1013.2
20260510004945 21 190 1.6 1.6 0.00 0.23 0.23 96 1013.2
20260510004442 22 191 0.0 0.0 0.00 0.23 0.23 96 1013.3
20260510003940 22 169 0.0 0.0 0.00 0.23 0.23 96 1013.1
20260510003437 22 169 0.0 0.0 0.00 0.23 0.23 95 1013.0
20260510002937 22 169 0.0 0.0 0.00 0.23 0.23 95 1013.0
20260510002433 22 169 0.0 0.0 0.00 0.23 0.23 95 1013.2
20260510001929 22 200 1.6 1.6 0.00 0.23 0.23 95 1013.4
20260510001427 22 200 0.0 0.0 0.00 0.23 0.23 94 1013.7
20260510000925 22 222 1.6 1.6 0.00 0.23 0.23 94 1013.4
20260510000421 22 195 0.0 0.0 0.00 0.23 0.23 94 1013.2
20260509235917 22 196 0.0 0.0 0.00 0.23 0.23 94 1013.4
20260509235414 22 196 0.0 0.0 0.00 0.23 0.23 94 1013.5
20260509234910 22 194 0.0 0.0 0.00 0.23 0.23 94 1013.4
20260509234408 22 223 0.0 0.0 0.00 0.23 0.23 93 1013.4
20260509233906 22 219 1.6 1.6 0.00 0.23 0.23 93 1013.3
20260509233403 22 217 0.0 0.0 0.00 0.23 0.23 93 1013.2
20260509232858 22 218 0.0 0.0 0.00 0.23 0.23 93 1013.5
20260509232356 23 27 0.0 0.0 0.00 0.23 0.23 93 1013.4
20260509231852 23 191 1.6 0.0 0.00 0.23 0.23 92 1013.1
20260509231349 23 237 0.0 0.0 0.00 0.23 0.23 92 1013.3
20260509230842 23 220 0.0 0.0 0.00 0.23 0.23 92 1013.3
20260509230338 23 235 1.6 1.6 0.00 0.23 0.23 91 1013.3
20260509225833 23 233 0.0 0.0 0.00 0.23 0.23 91 1013.3
20260509225331 23 201 1.6 1.6 0.00 0.23 0.23 92 1013.1
20260509224827 23 229 1.6 1.6 0.00 0.23 0.23 92 1013.1
20260509224322 23 240 0.0 0.0 0.00 0.23 0.23 92 1012.9
20260509223819 23 240 1.6 1.6 0.00 0.23 0.23 91 1013.0
20260509223316 23 198 0.0 0.0 0.00 0.23 0.23 92 1012.9
20260509222812 23 196 1.6 1.6 0.00 0.23 0.23 91 1012.9
20260509222306 24 197 0.0 0.0 0.00 0.23 0.23 90 1012.9
20260509221758 24 221 1.6 1.6 0.00 0.23 0.23 90 1012.8
20260509221256 24 219 0.0 0.0 0.00 0.23 0.23 91 1012.8
20260509220751 24 251 0.0 0.0 0.00 0.23 0.23 91 1012.8
20260509220248 24 254 1.6 1.6 0.00 0.23 0.23 90 1012.7
20260509215743 24 208 0.0 0.0 0.00 0.23 0.23 91 1012.8
20260509215239 24 209 0.0 0.0 0.00 0.23 0.23 91 1012.9
20260509214736 25 212 0.0 0.0 0.00 0.23 0.23 90 1012.8
20260509214234 25 211 0.0 0.0 0.00 0.23 0.23 91 1012.8
20260509213730 25 224 0.0 0.0 0.00 0.23 0.23 89 1012.9
20260509213226 25 195 0.0 0.0 0.00 0.23 0.23 89 1012.7
20260509212723 25 195 0.0 0.0 0.00 0.23 0.23 90 1012.9
20260509212220 25 195 1.6 1.6 0.00 0.23 0.23 91 1012.7
20260509211716 25 194 0.0 0.0 0.00 0.23 0.23 91 1012.5
20260509211213 25 184 1.6 1.6 0.00 0.23 0.23 91 1012.6
20260509210709 25 217 0.0 0.0 0.00 0.23 0.23 93 1012.6
20260509210207 25 217 0.0 0.0 0.00 0.23 0.23 92 1012.5
20260509205702 25 218 0.0 0.0 0.00 0.23 0.23 92 1012.7
20260509205201 24 219 0.0 0.0 0.00 0.23 0.23 92 1012.7
20260509204658 24 222 1.6 1.6 0.00 0.23 0.23 92 1012.6
20260509204154 24 215 0.0 0.0 0.00 0.23 0.23 92 1012.7
20260509203650 25 215 1.6 1.6 0.00 0.23 0.23 91 1012.5
20260509203149 25 215 1.6 1.6 0.00 0.23 0.23 92 1012.6
20260509202643 25 215 0.0 0.0 0.00 0.23 0.23 92 1012.5
20260509202139 25 215 0.0 0.0 0.00 0.23 0.23 90 1012.6
20260509201634 25 215 0.0 0.0 0.00 0.23 0.23 91 1012.5
20260509201131 25 216 0.0 0.0 0.00 0.23 0.23 91 1012.8
20260509200626 25 185 1.6 1.6 0.00 0.23 0.23 91 1012.7
20260509200117 24 185 0.0 0.0 0.00 0.23 0.23 92 1012.5
20260509195613 24 186 0.0 0.0 0.00 0.23 0.23 94 1012.7
20260509195108 23 186 1.6 1.6 0.00 0.23 0.23 94 1012.6
20260509194607 23 200 0.0 0.0 0.00 0.23 0.23 94 1012.6
20260509194105 23 203 1.6 1.6 0.00 0.23 0.23 94 1012.5
20260509193601 23 176 1.6 1.6 0.00 0.23 0.23 93 1012.8
20260509193057 23 198 0.0 0.0 1.07 0.23 0.23 92 1012.8
20260509192554 23 270 3.2 3.2 1.37 0.23 0.23 90 1012.8
20260509192048 25 231 4.8 4.8 0.43 0.08 0.08 88 1013.1
20260509191543 26 212 1.6 1.6 0.00 0.00 0.00 83 1012.8
20260509191039 26 208 0.0 0.0 0.00 0.00 0.00 82 1012.5
20260509190536 26 208 0.0 0.0 0.00 0.00 0.00 77 1012.5
20260509190034 27 208 0.0 0.0 0.00 0.00 0.00 79 1012.5
20260509185531 27 208 0.0 0.0 0.00 0.00 0.00 74 1012.5
20260509185027 28 208 0.0 0.0 0.00 0.00 0.00 70 1012.1
20260509184526 28 208 0.0 0.0 0.00 0.00 0.00 72 1012.3
20260509184022 28 208 0.0 0.0 0.00 0.00 0.00 71 1012.2
20260509183517 28 208 0.0 0.0 0.00 0.00 0.00 71 1012.2
20260509183013 28 214 0.0 0.0 0.00 0.00 0.00 69 1012.4
20260509182510 28 180 1.6 1.6 0.00 0.00 0.00 68 1012.5
20260509182007 28 223 1.6 1.6 0.00 0.00 0.00 68 1012.5
20260509181505 29 212 0.0 0.0 0.00 0.00 0.00 68 1012.7
20260509181002 28 211 0.0 0.0 0.00 0.00 0.00 70 1012.7
20260509180457 28 214 0.0 0.0 0.00 0.00 0.00 70 1012.7
20260509175955 28 219 3.2 1.6 0.00 0.00 0.00 66 1012.8
20260509175451 28 223 0.0 0.0 0.00 0.00 0.00 68 1013.0
20260509174947 28 222 3.2 1.6 0.00 0.00 0.00 69 1012.9
20260509174444 28 229 1.6 1.6 0.00 0.00 0.00 70 1013.2
20260509173938 28 235 3.2 3.2 0.00 0.00 0.00 73 1013.1
20260509173433 27 240 4.8 3.2 0.00 0.00 0.00 70 1013.4
20260509172930 27 207 3.2 3.2 0.00 0.00 0.00 72 1013.4
20260509172427 27 208 3.2 3.2 0.00 0.00 0.00 72 1013.3
20260509171923 27 220 1.6 1.6 0.00 0.00 0.00 72 1013.2
20260509171419 27 269 3.2 3.2 0.00 0.00 0.00 73 1013.4
20260509170915 27 253 3.2 3.2 0.00 0.00 0.00 74 1013.4
20260509170410 27 210 1.6 1.6 0.00 0.00 0.00 73 1013.4
20260509165906 27 190 0.0 1.6 0.00 0.00 0.00 71 1013.3
20260509165401 27 210 1.6 1.6 0.00 0.00 0.00 74 1013.4
20260509164857 27 201 1.6 1.6 0.00 0.00 0.00 72 1013.6
20260509164352 27 232 0.0 0.0 0.00 0.00 0.00 75 1013.5
20260509163849 27 289 3.2 3.2 0.00 0.00 0.00 73 1013.5
20260509163346 27 221 3.2 3.2 0.00 0.00 0.00 74 1013.6
20260509162839 27 168 0.0 0.0 0.00 0.00 0.00 74 1013.6
20260509162332 27 202 1.6 1.6 0.00 0.00 0.00 76 1013.5
20260509161829 27 207 3.2 3.2 0.00 0.00 0.00 78 1013.9
20260509161325 27 190 0.0 0.0 0.00 0.00 0.00 77 1013.6
20260509160821 27 193 0.0 0.0 0.00 0.00 0.00 79 1013.4
20260509160317 27 206 0.0 0.0 0.00 0.00 0.00 78 1013.4
20260509155812 26 236 1.6 1.6 0.00 0.00 0.00 80 1013.4
20260509155309 26 236 1.6 1.6 0.00 0.00 0.00 79 1013.4
20260509154805 26 229 3.2 3.2 0.00 0.00 0.00 81 1013.3
20260509154302 26 231 1.6 1.6 0.00 0.00 0.00 81 1013.4
20260509153759 26 185 1.6 1.6 0.00 0.00 0.00 82 1013.4
20260509153255 25 154 1.6 1.6 0.00 0.00 0.00 82 1013.5
20260509152752 25 179 0.0 1.6 0.00 0.00 0.00 84 1013.5
20260509152248 25 179 0.0 1.6 0.00 0.00 0.00 85 1013.3
20260509151745 25 178 1.6 1.6 0.00 0.00 0.00 84 1013.5
20260509151242 25 165 3.2 3.2 0.00 0.00 0.00 85 1013.4
20260509150740 24 175 1.6 1.6 0.00 0.00 0.00 86 1013.2